Temperature
21 21 20 19 19 19 21 22 22 22 22 22 22 22 21 21 21 20 20 20 21 20 20 19 19 20 20 20 20 20 19 19 19 19 19 19 19 19 19 19 19 19 18 18 18 18 18 18 18
21 20 20 19 19 20 21 22 22 22 22 22 22 21 21 20 20 20 20 20 20 20 20 19 19 20 20 20 20 20 19 19 19 19 19 19 19 19 19 19 19 19 19 18 18 18 18 18 18
21 20 20 18 20 20 22 22 22 23 23 22 21 21 21 20 20 20 20 20 20 20 20 20 19 20 20 20 20 20 19 19 19 19 19 19 19 19 19 19 19 19 19 19 19 18 18 18 18
21 20 20 18 20 21 22 22 22 23 22 22 21 20 20 20 20 21 20 20 20 20 20 19 20 20 20 20 19 19 19 19 19 19 19 19 19 19 19 19 19 19 19 19 19 18 18 18 18
21 20 19 19 20 21 22 23 23 22 22 22 21 20 20 20 21 21 20 20 20 20 20 20 20 20 20 19 19 19 19 19 19 19 19 19 19 19 19 19 19 19 19 19 18 18 18 18 18
21 19 18 19 21 22 22 23 23 22 22 22 21 20 19 20 20 20 20 20 20 20 20 19 19 19 19 19 19 19 19 19 19 19 19 19 19 19 19 19 19 19 19 18 18 18 18 18 17
20 18 19 20 21 22 23 23 22 22 21 21 21 19 18 19 19 20 20 20 20 19 19 19 19 19 19 19 19 19 19 19 19 19 19 19 19 19 18 18 18 18 18 18 18 18 18 18 17
22 18 20 20 21 22 23 23 22 22 21 21 21 19 18 19 19 19 19 19 19 19 19 19 19 19 19 19 19 19 19 19 19 19 18 18 18 18 18 18 18 18 18 18 18 18 18 18 17
22 18 19 20 21 22 23 22 22 22 21 20 20 20 20 19 19 19 19 19 19 19 19 19 19 19 19 19 18 18 18 18 18 18 18 18 18 18 18 18 18 18 18 18 18 18 18 18 18
21 18 20 21 22 22 22 22 22 21 21 19 19 19 20 19 18 18 18 18 18 18 19 19 19 19 19 18 18 18 18 18 18 18 18 18 18 18 18 18 18 18 18 18 18 18 18 18 18
20 20 21 22 23 22 21 21 21 21 20 20 19 19 19 19 18 18 19 19 19 19 19 19 19 19 18 18 18 18 18 18 18 18 18 18 18 18 17 17 17 17 18 18 18 18 18 17 17
21 21 22 23 23 22 21 21 20 20 20 20 20 20 19 18 18 19 19 19 19 19 19 18 18 18 18 18 18 18 18 18 18 17 17 17 17 17 17 17 17 17 17 17 17 17 17 17 17
22 22 23 23 22 22 21 20 20 19 20 20 20 19 19 18 18 18 18 18 19 19 19 18 18 18 18 18 18 18 18 18 17 17 17 17 17 17 17 17 17 17 17 17 17 17 17 17 17
23 22 22 22 22 21 20 20 19 19 19 19 18 18 18 18 18 18 18 18 18 19 19 18 18 18 18 18 18 17 17 17 17 17 17 17 17 17 17 17 17 17 17 17 17 17 17 17 17
23 22 21 21 21 21 21 20 19 19 19 18 18 18 18 18 18 18 18 18 18 18 18 18 18 18 18 18 17 17 17 17 17 17 17 17 16 16 16 16 16 16 16 16 16 16 16 16 16
22 21 21 21 20 21 21 20 19 18 18 18 18 17 17 17 18 18 18 18 18 18 18 18 18 18 17 17 17 17 17 17 17 17 16 16 16 16 16 16 16 16 16 16 16 16 16 16 16
20 21 21 21 21 21 20 19 18 18 18 17 17 17 17 17 17 17 17 18 18 18 18 18 18 17 17 17 17 17 17 17 16 16 16 16 16 16 16 16 16 16 16 15 15 15 15 15 16
21 21 21 21 21 20 19 18 18 18 18 17 17 17 17 17 17 17 17 17 17 17 17 17 17 17 17 17 17 17 17 16 16 16 16 16 16 16 15 15 15 15 15 15 15 15 15 15 15
22 22 21 21 21 20 19 18 17 17 17 17 17 17 17 17 17 17 17 17 17 17 17 17 17 17 17 17 17 17 16 16 16 16 15 15 15 15 15 15 15 15 15 15 14 14 14 14 15
21 21 20 20 20 20 18 18 18 17 17 17 17 17 17 17 17 17 17 17 17 18 18 17 17 17 17 17 17 17 16 16 16 15 15 15 15 15 15 15 14 14 14 14 14 14 14 14 14
21 21 21 20 20 19 19 19 18 17 17 17 17 17 17 17 17 17 17 17 17 17 18 17 17 17 17 17 17 16 16 16 15 15 15 15 15 14 14 14 14 14 14 14 14 14 14 14 13
21 22 21 20 19 18 19 18 18 17 17 17 17 17 17 17 17 17 17 17 17 17 17 17 17 17 17 17 16 16 16 16 15 15 15 15 14 14 14 14 14 14 13 13 13 13 13 13 13
22 21 20 19 18 18 18 18 17 17 17 17 17 17 18 18 18 17 17 17 17 17 17 17 17 17 17 16 16 16 16 16 15 15 15 14 14 14 14 14 13 13 13 13 13 13 13 13 13
21 20 18 16 16 18 18 18 18 16 17 17 17 18 18 18 18 18 17 17 17 17 17 17 17 17 16 16 16 16 16 15 15 15 14 14 14 14 13 13 13 13 13 13 13 12 12 12 12
20 19 18 19 17 18 17 17 17 18 18 18 18 18 18 18 18 18 18 17 17 17 17 17 17 17 16 16 16 16 15 15 15 14 14 14 14 13 13 13 13 13 12 12 12 12 12 12 12
20 19 19 19 18 18 17 17 18 19 19 19 19 19 19 19 19 18 18 18 18 18 17 17 17 17 16 16 16 15 15 15 14 14 14 13 13 13 13 13 12 12 12 12 12 12 11 11 11
20 19 18 17 18 18 18 17 18 18 18 18 19 19 19 19 19 19 19 19 18 18 18 18 17 17 17 16 16 15 15 15 14 14 14 13 13 13 13 12 12 12 12 12 12 11 11 11 11
20 17 16 17 18 19 19 19 18 19 18 17 17 18 19 20 20 20 19 19 19 19 18 18 18 17 17 16 16 15 15 15 14 14 13 13 13 13 13 12 12 12 12 12 11 11 11 11 11
19 18 16 15 16 17 19 19 19 19 18 18 18 19 20 20 20 20 20 20 19 19 18 18 18 17 17 16 16 15 15 15 14 14 13 13 13 13 13 12 12 12 12 11 11 11 11 11 11
20 19 16 18 17 16 17 18 20 19 18 19 19 20 21 21 21 21 21 20 20 19 19 18 18 17 17 16 16 15 15 15 14 14 14 13 13 13 13 13 12 12 12 11 11 11 11 11 11
Wind_Speed
4 4 2 1 3 4 1 2 2 1 1 1 3 4 3 2 2 2 2 11 15 15 17 21 22 21 21 20 20 20 19 19 19 18 17 17 16 15 14 13 12 12 11 11 11 11 12 12 12
4 3 1 2 4 2 4 2 3 3 4 4 3 4 3 2 1 4 6 10 15 15 16 18 22 22 21 20 20 19 19 18 18 17 16 16 15 14 13 13 12 11 11 11 11 11 12 12 11
3 2 2 3 2 2 3 2 4 3 5 5 3 2 1 1 3 5 7 14 13 12 15 18 22 21 20 20 19 18 18 17 17 16 15 15 14 13 13 12 11 11 11 11 11 11 11 11 10
2 2 3 4 2 4 3 3 3 4 4 3 4 2 1 2 2 6 14 16 14 11 14 18 21 20 20 19 18 17 17 16 15 15 14 13 13 12 12 11 11 10 10 10 10 10 10 10 9
3 3 4 2 4 4 3 3 3 4 4 3 4 3 1 3 5 12 14 16 15 11 12 17 20 19 19 18 17 17 16 15 14 14 13 12 11 11 11 10 9 9 9 9 9 9 8 8 7
4 4 3 2 5 4 3 1 2 2 2 3 5 4 1 2 8 12 13 13 12 12 11 15 19 18 17 17 17 16 15 15 14 13 12 11 11 10 10 9 9 8 8 8 8 8 7 7 6
4 4 2 3 4 4 1 0 2 2 2 2 4 5 2 3 7 11 11 11 10 9 8 9 14 16 17 16 16 15 15 14 13 13 12 11 10 9 9 9 8 7 7 7 6 6 6 5 5
5 4 0 2 3 4 2 1 1 2 1 2 3 5 4 5 9 11 11 10 9 8 6 6 9 11 12 13 14 15 14 14 13 12 11 11 10 9 9 8 7 6 6 6 6 5 5 4 3
4 4 2 5 5 4 1 1 1 1 3 3 2 2 5 12 13 13 11 9 8 8 5 5 6 8 8 9 12 13 13 13 12 11 11 10 7 7 7 7 7 7 6 6 5 5 4 4 3
4 3 6 5 4 3 0 0 1 1 2 2 4 6 11 12 13 13 13 12 11 10 7 5 6 6 7 8 8 8 8 9 8 7 8 7 5 5 6 6 7 7 7 7 6 6 5 3 2
6 6 4 4 3 2 1 0 0 3 1 3 5 10 13 12 12 11 11 10 9 8 8 6 6 7 6 4 6 5 5 6 6 6 6 6 5 3 3 3 4 5 5 5 5 4 3 3 2
4 5 4 3 1 1 2 2 2 1 2 2 6 11 13 13 12 12 11 10 9 8 7 6 6 6 6 5 5 5 4 4 4 5 6 6 4 2 2 2 2 2 2 2 2 2 2 2 2
4 3 2 0 2 2 3 2 2 1 2 4 8 11 12 11 9 8 8 7 8 7 6 6 6 6 5 4 3 4 4 4 5 5 4 5 4 2 2 1 1 1 2 2 1 1 1 1 1
3 1 0 1 1 1 3 1 2 1 3 6 7 8 9 9 9 9 9 8 7 7 6 6 6 5 5 4 3 3 4 5 5 4 4 6 5 3 2 1 1 0 2 2 2 1 1 1 1
1 1 2 1 0 2 3 2 0 1 3 5 6 8 8 7 8 8 8 8 7 6 5 6 6 6 6 5 4 4 5 6 4 4 4 5 5 5 4 2 1 0 1 2 2 1 1 0 1
3 3 2 3 0 0 3 1 1 2 4 4 5 8 7 5 5 5 7 7 6 6 5 5 6 7 6 6 4 4 5 5 4 4 5 5 6 6 4 2 1 1 3 3 2 1 1 1 1
4 2 3 3 0 2 2 2 1 2 4 4 4 6 7 6 4 4 5 7 7 6 6 5 6 7 7 6 5 5 5 4 4 4 5 5 5 6 5 3 2 3 3 2 1 1 1 0 1
4 3 4 3 2 2 1 2 1 1 4 4 4 4 5 6 5 5 5 6 6 6 6 6 6 6 7 6 5 4 4 3 4 4 4 4 5 6 6 4 3 4 3 2 2 2 2 1 1
4 4 6 4 0 2 1 1 1 1 3 3 4 5 6 5 5 5 6 6 7 7 7 6 6 5 6 4 4 4 3 2 2 2 3 4 5 5 5 3 3 3 3 2 2 2 2 2 2
4 4 4 2 2 2 1 1 1 2 3 4 5 7 6 6 5 5 5 5 6 7 8 7 6 6 5 4 4 3 4 3 2 2 3 3 3 4 4 3 2 2 3 3 2 2 2 2 2
4 6 5 4 2 3 2 2 1 1 1 2 4 6 7 9 9 7 6 5 6 8 8 8 7 6 6 6 5 5 4 4 3 2 2 2 2 3 3 4 3 3 2 2 2 2 3 1 2
5 5 5 5 4 1 2 2 4 3 3 5 6 7 8 9 8 8 8 7 7 7 7 7 6 6 5 6 6 6 4 3 2 1 1 2 3 3 3 4 4 3 2 2 1 2 2 2 1
3 4 5 4 4 2 2 2 6 2 5 9 9 10 10 10 11 10 9 8 7 7 7 7 6 6 5 5 6 6 5 3 3 3 3 3 4 4 4 4 3 3 2 2 2 2 2 1 1
6 6 7 6 5 1 2 3 6 5 8 8 9 11 11 11 10 9 8 7 6 6 6 7 7 5 5 6 6 7 7 6 5 4 3 2 2 3 3 4 4 3 2 2 2 2 2 1 1
5 6 4 4 4 5 2 2 8 7 7 10 12 12 11 10 10 10 10 9 9 9 8 7 7 6 6 6 6 6 7 7 7 5 4 3 2 1 1 2 2 1 1 2 2 2 1 1 1
6 8 7 5 5 4 2 5 7 4 5 6 8 10 10 10 10 11 12 11 11 10 9 9 8 7 6 7 6 5 6 5 4 4 4 4 3 2 2 2 1 1 1 1 1 1 1 1 2
7 4 6 7 3 1 5 7 8 2 3 5 7 9 11 12 12 12 12 11 11 11 11 11 10 8 7 7 6 6 6 5 5 4 4 3 2 2 2 2 1 1 1 1 1 1 1 1 2
5 9 6 6 5 3 5 5 5 6 8 8 9 11 12 11 11 11 11 12 11 10 9 9 9 9 8 8 7 6 6 6 5 5 5 4 3 2 3 2 2 2 1 1 1 1 1 2 2
5 5 6 5 5 6 3 7 7 10 10 12 13 13 13 13 13 12 11 11 10 9 9 9 9 8 7 8 7 7 6 6 5 5 5 5 4 4 3 3 3 2 2 2 2 2 3 3 3
5 7 8 6 5 5 4 8 6 9 9 11 12 12 12 13 12 11 10 10 9 10 10 10 10 9 9 8 7 7 6 6 6 5 5 5 4 4 4 3 3 3 3 3 3 4 4 4 5
Wind_Direction
183 165 151 108 58 48 294 237 203 200 149 131 122 125 134 157 195 240 129 142 139 145 153 153 149 145 141 138 136 135 134 134 134 134 135 135 135 134 133 131 128 125 122 119 115 113 111 108 105
144 155 136 60 74 26 292 218 201 195 166 136 98 102 112 176 125 118 133 142 141 145 149 153 151 147 145 142 141 140 140 139 139 139 139 139 138 137 135 133 131 128 125 122 119 118 115 112 108
153 181 90 66 92 193 264 232 191 160 146 142 132 96 120 192 137 149 150 142 138 141 147 155 152 150 148 147 146 145 145 144 144 144 143 142 142 140 138 136 134 132 129 127 124 122 119 115 111
127 59 57 62 277 242 240 251 175 151 156 163 145 123 103 2 155 145 143 144 140 139 147 156 153 153 152 151 151 150 149 149 148 148 148 147 146 145 142 140 139 137 135 131 129 126 122 118 112
65 77 55 8 277 271 265 257 187 167 156 148 142 136 102 3 105 131 141 146 146 143 147 155 155 155 155 155 155 154 154 153 152 151 152 152 152 151 149 147 143 142 142 138 135 131 126 120 112
61 68 77 291 283 283 275 269 121 119 138 130 136 138 95 89 124 137 141 143 145 143 143 152 156 157 158 159 159 159 159 159 159 158 159 160 161 159 157 155 153 151 149 148 144 140 134 126 114
110 102 167 238 279 292 284 73 126 137 141 160 147 135 133 130 133 132 130 130 133 134 134 143 155 159 161 165 165 165 165 166 166 166 167 168 169 168 168 166 165 164 164 163 161 156 150 141 129
135 108 287 258 250 266 282 47 80 121 147 117 122 151 172 157 135 125 125 127 133 132 128 128 141 149 158 167 172 171 171 171 171 171 174 175 175 176 177 174 177 180 180 182 183 179 172 164 154
113 81 236 232 220 246 252 62 4 71 107 91 79 138 142 139 136 132 134 134 140 143 133 132 136 140 149 161 175 175 175 175 175 177 182 180 175 177 185 189 194 197 198 201 202 203 200 196 190
118 165 229 226 210 217 173 108 207 106 88 98 92 101 127 140 144 148 153 155 159 160 155 149 146 142 146 164 168 169 171 171 169 174 178 166 164 182 194 202 211 215 216 218 215 216 218 215 224
167 199 237 255 234 191 148 184 136 139 219 205 163 147 145 150 152 157 160 160 163 164 166 162 154 147 148 152 152 154 153 154 156 164 163 154 156 174 194 198 219 223 219 221 223 219 216 202 214
182 241 233 265 46 106 160 160 96 109 238 201 157 149 149 157 163 163 162 166 163 164 167 160 153 149 152 150 152 151 147 147 147 160 165 155 149 156 182 188 206 201 195 196 205 202 208 210 232
204 249 270 258 65 96 101 100 111 51 66 100 131 142 152 157 162 158 157 160 159 162 163 157 156 154 148 140 147 143 142 147 146 147 159 160 151 155 162 147 146 168 176 173 169 160 183 202 247
222 191 48 44 77 96 123 100 78 314 93 112 133 147 153 152 158 155 157 163 167 161 155 147 152 148 137 136 136 134 139 135 128 134 151 149 149 145 126 94 69 103 182 177 171 171 180 214 253
31 57 6 347 88 162 126 45 86 229 118 123 138 139 139 139 149 160 165 165 165 153 141 148 153 142 136 132 132 130 129 125 120 131 140 144 146 140 126 108 90 43 166 139 129 107 84 34 311
37 46 334 282 201 196 124 237 260 156 138 135 131 129 125 117 132 146 153 152 147 139 137 144 144 128 127 125 123 120 121 121 122 126 123 128 131 130 120 114 108 104 95 94 98 86 79 28 344
28 343 290 301 342 81 118 224 260 167 145 134 120 121 124 119 118 123 133 139 141 138 141 132 121 127 126 120 115 112 112 113 117 119 115 116 120 125 118 110 95 95 86 74 91 77 89 44 328
253 265 276 276 301 81 111 215 219 167 153 143 126 128 134 136 141 131 122 130 129 127 128 127 122 124 119 112 105 94 90 89 97 104 112 121 122 119 112 104 99 101 93 79 75 82 64 51 335
213 232 264 273 233 110 132 170 218 172 143 145 152 156 156 154 142 137 127 129 135 131 131 132 133 131 127 125 125 122 121 107 90 96 106 114 121 121 116 109 100 101 106 110 114 105 68 35 8
211 230 257 297 72 105 111 303 232 182 189 184 174 171 170 156 142 147 140 151 151 145 142 142 145 139 137 133 127 123 120 110 96 68 70 82 112 122 126 123 120 113 107 93 86 96 97 37 29
222 200 215 199 77 61 80 351 251 233 197 193 181 171 168 165 168 164 158 157 151 153 154 156 149 141 136 127 112 97 82 71 66 56 50 33 86 122 124 125 121 114 114 112 97 106 117 99 31
238 220 179 148 127 298 106 252 264 214 213 210 198 186 182 177 176 178 170 166 165 163 150 143 141 137 134 132 131 133 133 134 147 132 97 48 63 100 123 130 128 121 119 124 121 110 116 126 97
183 83 95 105 123 70 36 172 278 184 215 221 206 198 195 185 182 185 180 174 170 156 145 140 141 136 134 134 137 130 123 127 119 105 93 70 51 64 96 121 129 130 132 136 117 110 112 129 154
127 75 62 56 73 358 239 186 267 216 211 207 202 201 197 187 181 179 175 166 160 150 146 148 145 143 142 139 138 141 140 139 133 126 117 92 64 53 70 95 104 117 128 140 143 138 137 150 162
102 95 34 355 2 257 253 223 253 240 212 196 194 197 194 186 179 177 177 176 171 168 167 160 156 157 153 144 144 149 150 152 154 153 148 139 118 97 85 95 98 106 137 150 145 143 160 176 186
176 146 160 206 233 277 295 247 256 257 214 192 183 181 180 184 185 187 188 185 182 179 175 170 171 166 162 156 156 155 154 152 156 160 157 161 166 177 171 147 139 146 157 150 139 150 211 204 218
142 161 156 132 140 294 281 282 301 227 194 182 178 176 185 188 189 190 188 186 185 183 183 180 175 171 173 169 162 162 163 163 165 162 159 165 179 186 179 177 177 200 194 170 155 200 240 231 237
133 137 106 126 149 254 292 276 249 227 208 195 192 194 196 191 190 191 190 189 189 187 181 176 176 179 178 173 174 177 177 176 170 165 175 184 194 190 182 193 206 220 224 213 201 230 243 241 255
119 108 111 115 148 159 251 273 225 206 197 194 200 199 195 193 195 195 194 190 184 177 175 179 179 176 177 180 180 174 177 176 173 180 191 193 197 198 205 215 221 231 238 232 226 245 245 247 259
163 166 151 154 198 176 184 266 263 207 198 191 197 198 195 194 195 193 188 181 179 181 183 184 182 183 185 181 176 178 175 173 180 194 200 196 203 211 216 220 230 242 243 239 237 253 252 247 257
Height
1504 1504 1504 1506 1508 1515 1516 1508 1503 1501 1501 1500 1500 1500 1502 1505 1508 1512 1506 1506 1510 1514 1518 1522 1525 1528 1530 1533 1535 1537 1538 1540 1542 1543 1544 1546 1547 1548 1549 1550 1551 1552 1553 1553 1553 1554 1554 1555 1556
1504 1504 1506 1506 1512 1523 1516 1504 1502 1499 1499 1499 1499 1500 1501 1503 1502 1503 1504 1507 1511 1515 1519 1522 1526 1528 1531 1534 1536 1538 1540 1541 1543 1544 1546 1547 1548 1549 1550 1551 1552 1553 1554 1555 1555 1556 1556 1557 1558
1504 1504 1507 1508 1514 1519 1511 1501 1498 1497 1498 1498 1499 1500 1502 1502 1502 1502 1504 1508 1512 1517 1520 1523 1527 1530 1532 1534 1537 1539 1541 1543 1544 1546 1547 1548 1550 1551 1552 1553 1554 1555 1555 1556 1557 1557 1558 1559 1560
1504 1506 1507 1512 1514 1508 1502 1497 1496 1497 1498 1499 1500 1502 1502 1502 1502 1502 1504 1509 1513 1517 1521 1524 1527 1531 1533 1536 1538 1540 1542 1544 1546 1547 1548 1550 1551 1552 1553 1554 1555 1556 1557 1558 1558 1559 1560 1561 1562
1505 1506 1511 1517 1512 1503 1498 1495 1494 1495 1497 1498 1499 1501 1501 1502 1502 1503 1505 1510 1514 1518 1521 1525 1528 1531 1534 1537 1539 1541 1543 1545 1547 1548 1550 1551 1552 1554 1555 1556 1557 1558 1559 1559 1560 1561 1562 1563 1564
1505 1507 1519 1521 1511 1501 1496 1494 1494 1495 1497 1498 1498 1500 1501 1502 1502 1504 1507 1511 1515 1518 1522 1526 1529 1532 1535 1538 1540 1542 1544 1545 1547 1549 1550 1552 1553 1554 1556 1557 1558 1559 1560 1561 1562 1562 1563 1564 1565
1506 1511 1516 1514 1510 1503 1496 1494 1494 1495 1496 1497 1497 1499 1500 1502 1503 1505 1508 1512 1516 1520 1523 1526 1529 1532 1535 1538 1541 1542 1544 1546 1547 1549 1551 1552 1554 1555 1556 1558 1559 1560 1561 1562 1563 1564 1565 1565 1566
1505 1510 1513 1513 1509 1503 1496 1495 1495 1495 1496 1496 1497 1498 1499 1501 1503 1506 1509 1513 1517 1520 1523 1526 1529 1532 1535 1538 1541 1543 1545 1546 1548 1549 1551 1553 1554 1556 1557 1558 1559 1560 1562 1563 1564 1564 1565 1566 1567
1504 1513 1517 1510 1506 1500 1495 1496 1496 1496 1495 1496 1496 1497 1498 1500 1503 1507 1510 1513 1517 1520 1523 1526 1529 1532 1535 1538 1540 1543 1545 1546 1548 1549 1551 1553 1554 1556 1557 1558 1559 1561 1562 1563 1564 1565 1566 1567 1567
1504 1513 1508 1499 1497 1495 1495 1496 1496 1496 1496 1496 1496 1497 1498 1500 1503 1506 1509 1511 1516 1519 1523 1526 1529 1532 1535 1538 1540 1542 1544 1546 1547 1549 1551 1553 1554 1556 1557 1558 1559 1561 1562 1563 1564 1565 1566 1566 1567
1501 1504 1498 1495 1494 1494 1495 1496 1496 1496 1497 1495 1495 1496 1498 1500 1503 1506 1509 1511 1515 1519 1523 1525 1528 1531 1534 1537 1540 1542 1544 1546 1547 1549 1551 1552 1554 1556 1557 1558 1559 1560 1561 1562 1563 1564 1565 1566 1566
1499 1497 1495 1493 1493 1494 1495 1495 1496 1496 1496 1495 1495 1496 1497 1500 1502 1505 1508 1512 1516 1519 1523 1526 1529 1531 1534 1537 1540 1542 1544 1545 1547 1549 1551 1552 1553 1555 1556 1557 1558 1559 1560 1561 1562 1563 1564 1565 1565
1497 1495 1494 1494 1494 1494 1495 1496 1496 1496 1495 1495 1495 1497 1498 1501 1504 1507 1510 1514 1517 1519 1522 1526 1529 1531 1534 1537 1539 1541 1543 1545 1547 1549 1550 1552 1553 1554 1555 1556 1557 1558 1559 1560 1560 1561 1562 1563 1564
1494 1494 1494 1494 1494 1494 1495 1496 1497 1496 1496 1495 1495 1497 1499 1500 1503 1506 1510 1512 1516 1520 1523 1525 1528 1531 1534 1537 1539 1541 1543 1545 1546 1548 1550 1551 1552 1553 1554 1555 1556 1557 1558 1558 1559 1560 1560 1561 1562
1493 1495 1495 1494 1494 1495 1496 1499 1497 1496 1496 1496 1496 1497 1500 1501 1503 1506 1509 1512 1516 1519 1522 1525 1527 1530 1533 1536 1539 1541 1543 1544 1546 1548 1550 1550 1551 1552 1553 1554 1554 1555 1556 1557 1557 1558 1558 1559 1560
1494 1499 1503 1496 1494 1494 1499 1505 1498 1497 1496 1496 1497 1499 1500 1502 1505 1507 1510 1512 1516 1519 1522 1525 1527 1529 1533 1536 1539 1541 1543 1544 1546 1548 1549 1549 1550 1551 1552 1553 1553 1554 1554 1555 1556 1556 1556 1557 1558
1503 1507 1504 1499 1494 1494 1498 1502 1498 1498 1498 1498 1498 1500 1502 1504 1506 1509 1510 1512 1516 1519 1522 1525 1527 1529 1533 1536 1539 1541 1543 1545 1546 1547 1548 1549 1550 1550 1551 1551 1552 1553 1553 1554 1554 1555 1555 1555 1555
1507 1505 1503 1502 1495 1495 1499 1501 1499 1498 1499 1499 1500 1501 1503 1505 1507 1509 1511 1513 1516 1519 1522 1525 1528 1531 1533 1535 1538 1541 1543 1544 1546 1547 1548 1549 1549 1550 1550 1550 1551 1551 1552 1552 1553 1553 1553 1553 1553
1496 1501 1503 1499 1494 1496 1500 1501 1500 1499 1500 1500 1501 1501 1503 1505 1507 1509 1511 1514 1516 1519 1522 1525 1529 1531 1533 1535 1538 1540 1542 1544 1545 1547 1548 1548 1549 1549 1550 1550 1550 1550 1551 1551 1552 1552 1551 1551 1552
1495 1501 1501 1497 1494 1497 1501 1502 1499 1499 1500 1500 1500 1501 1501 1504 1507 1510 1513 1515 1517 1519 1522 1526 1529 1532 1534 1536 1538 1540 1541 1543 1545 1546 1547 1548 1548 1549 1549 1549 1549 1549 1550 1550 1551 1551 1550 1550 1550
1494 1498 1498 1499 1497 1498 1502 1505 1502 1500 1500 1500 1501 1501 1502 1504 1506 1510 1512 1515 1517 1519 1523 1526 1529 1531 1533 1535 1537 1539 1541 1542 1544 1545 1546 1547 1548 1548 1548 1549 1549 1549 1549 1549 1549 1549 1549 1549 1549
1494 1486 1489 1495 1504 1510 1506 1518 1504 1500 1500 1499 1500 1501 1503 1505 1507 1509 1511 1514 1517 1520 1523 1527 1529 1531 1533 1535 1537 1539 1540 1541 1543 1544 1545 1546 1547 1547 1547 1548 1548 1548 1548 1548 1548 1548 1548 1548 1548
1486 1485 1490 1497 1505 1512 1510 1516 1510 1501 1501 1498 1497 1499 1501 1504 1507 1509 1511 1514 1517 1520 1523 1526 1529 1531 1533 1535 1537 1538 1539 1541 1542 1543 1544 1545 1545 1546 1546 1547 1547 1547 1547 1547 1547 1546 1546 1546 1546
1483 1490 1497 1506 1512 1520 1512 1516 1511 1502 1495 1492 1494 1496 1499 1502 1505 1508 1511 1514 1517 1520 1522 1526 1529 1531 1533 1535 1536 1537 1539 1540 1541 1542 1543 1543 1544 1545 1545 1545 1545 1545 1545 1545 1545 1545 1544 1544 1544
1485 1500 1517 1519 1526 1522 1510 1512 1506 1488 1485 1485 1488 1492 1495 1499 1503 1507 1510 1513 1516 1519 1522 1525 1528 1530 1532 1534 1535 1536 1538 1539 1540 1541 1541 1542 1543 1543 1543 1544 1544 1544 1543 1543 1543 1543 1542 1542 1541
1487 1494 1515 1524 1526 1520 1511 1511 1495 1481 1480 1482 1485 1489 1493 1497 1501 1504 1507 1511 1514 1517 1521 1524 1527 1529 1531 1533 1535 1536 1537 1538 1538 1539 1540 1541 1541 1541 1542 1542 1542 1542 1542 1541 1541 1540 1540 1539 1539
1487 1493 1494 1511 1516 1520 1513 1503 1488 1479 1480 1481 1484 1487 1490 1494 1498 1501 1505 1509 1513 1516 1519 1522 1525 1528 1530 1532 1533 1534 1536 1536 1537 1538 1539 1539 1540 1540 1540 1540 1540 1540 1540 1539 1538 1538 1538 1537 1537
1477 1487 1501 1511 1521 1522 1511 1504 1497 1482 1480 1480 1482 1484 1486 1491 1495 1499 1502 1506 1510 1514 1518 1521 1524 1527 1529 1531 1532 1533 1535 1535 1536 1537 1537 1538 1538 1538 1539 1539 1539 1538 1538 1537 1536 1536 1535 1535 1535
1482 1489 1497 1508 1510 1519 1519 1505 1476 1473 1473 1475 1477 1479 1482 1487 1491 1495 1499 1504 1508 1512 1516 1519 1522 1525 1527 1529 1531 1532 1533 1534 1535 1535 1536 1536 1537 1537 1537 1537 1537 1536 1536 1535 1535 1534 1534 1533 1533
1472 1480 1491 1501 1507 1511 1514 1501 1465 1465 1466 1469 1472 1475 1479 1483 1488 1492 1497 1501 1505 1509 1513 1516 1519 1522 1525 1527 1529 1530 1532 1532 1533 1534 1534 1535 1535 1536 1535 1535 1535 1535 1534 1534 1533 1532 1532 1531 1530